NWS1296 UUOO-URSS

Flight info

Callsign NWS1296
Flight time N/A
Altitude 35000
Route K0861F350 DCT PILOK L96 UMSIS N166 ADNET W79 BINOL DCT
Aircraft B738/M-SDGIJ1LRWY/SB1

Departure

Time N/A
Airport Voronezh International Airport (UUOO)

Arrival

Time 2026-05-05 10:15
Airport Sochi International Airport (URSS)
Time Latitude Longitude Altitude Speed Heading
2026-05-05 09:03 50.23414 40.41610 35013 ft 458 kts 161°
2026-05-05 09:04 50.20377 40.43155 35015 ft 459 kts 161°
2026-05-05 09:04 50.14333 40.46225 35014 ft 458 kts 161°
2026-05-05 09:05 50.08264 40.49298 35023 ft 457 kts 161°
2026-05-05 09:05 50.02238 40.52340 35035 ft 457 kts 161°
2026-05-05 09:06 49.96187 40.55380 35039 ft 457 kts 161°
2026-05-05 09:06 49.90161 40.58398 35039 ft 456 kts 161°
2026-05-05 09:07 49.84270 40.61340 35032 ft 456 kts 161°
2026-05-05 09:07 49.78237 40.64346 35024 ft 456 kts 161°
2026-05-05 09:08 49.72232 40.67331 35022 ft 457 kts 161°
2026-05-05 09:08 49.66119 40.70139 35022 ft 458 kts 166°
2026-05-05 09:09 49.59836 40.71334 35025 ft 461 kts 177°
2026-05-05 09:09 49.53418 40.71315 35027 ft 461 kts 180°
2026-05-05 09:10 49.46997 40.71014 35025 ft 460 kts 180°
2026-05-05 09:10 49.40663 40.70723 35026 ft 459 kts 180°
2026-05-05 09:11 49.34282 40.70479 35027 ft 459 kts 180°
2026-05-05 09:11 49.27867 40.70282 35027 ft 459 kts 179°
2026-05-05 09:12 49.21485 40.70106 35027 ft 460 kts 179°
2026-05-05 09:12 49.15100 40.69938 35031 ft 462 kts 179°
2026-05-05 09:13 49.08672 40.69772 35033 ft 462 kts 179°
2026-05-05 09:13 49.02305 40.69604 35035 ft 461 kts 179°
2026-05-05 09:14 48.95904 40.69437 35037 ft 460 kts 179°
2026-05-05 09:14 48.89497 40.68720 35036 ft 462 kts 186°
2026-05-05 09:15 48.84172 40.67355 35036 ft 464 kts 188°
2026-05-05 09:15 48.78430 40.65632 35033 ft 466 kts 189°
2026-05-05 09:16 48.72054 40.63697 35037 ft 466 kts 189°
2026-05-05 09:16 48.65728 40.61800 35038 ft 466 kts 188°
2026-05-05 09:17 48.59364 40.59923 35036 ft 465 kts 188°
2026-05-05 09:17 48.52986 40.58065 35035 ft 465 kts 188°
2026-05-05 09:18 48.46644 40.56232 35036 ft 465 kts 188°
2026-05-05 09:18 48.40296 40.54416 35038 ft 466 kts 188°
2026-05-05 09:19 48.33846 40.52586 35034 ft 467 kts 188°
2026-05-05 09:19 48.27484 40.50783 35034 ft 468 kts 188°
2026-05-05 09:20 48.21061 40.48963 35034 ft 467 kts 187°
2026-05-05 09:20 48.14720 40.47174 35031 ft 468 kts 187°
2026-05-05 09:21 48.08329 40.45375 35031 ft 467 kts 187°
2026-05-05 09:21 48.01915 40.43574 35036 ft 467 kts 187°
2026-05-05 09:22 47.95547 40.41795 35032 ft 467 kts 187°
2026-05-05 09:22 47.89135 40.40005 35030 ft 467 kts 187°
2026-05-05 09:23 47.82755 40.38344 35029 ft 466 kts 184°
2026-05-05 09:23 47.76321 40.37873 35030 ft 460 kts 174°
2026-05-05 09:24 47.69944 40.38440 35030 ft 458 kts 172°
2026-05-05 09:24 47.63631 40.39231 35028 ft 457 kts 171°
2026-05-05 09:25 47.57274 40.40011 35030 ft 457 kts 172°
2026-05-05 09:25 47.50947 40.40739 35030 ft 458 kts 172°
2026-05-05 09:26 47.44641 40.41429 35030 ft 457 kts 172°
2026-05-05 09:26 47.38293 40.42107 35031 ft 458 kts 172°
2026-05-05 09:27 47.31969 40.42778 35030 ft 457 kts 172°
2026-05-05 09:27 47.25621 40.43448 35029 ft 457 kts 172°
2026-05-05 09:28 47.19287 40.44113 35025 ft 457 kts 172°
2026-05-05 09:28 47.12997 40.44772 35019 ft 455 kts 172°
2026-05-05 09:29 47.06671 40.45182 35018 ft 458 kts 175°
2026-05-05 09:29 47.00311 40.45278 35015 ft 459 kts 176°
2026-05-05 09:30 46.93933 40.45334 35008 ft 458 kts 176°
2026-05-05 09:30 46.87781 40.45414 35010 ft 458 kts 175°
2026-05-05 09:31 46.82513 40.45505 35014 ft 458 kts 175°
2026-05-05 09:31 46.76157 40.45628 35014 ft 458 kts 175°
2026-05-05 09:32 46.69825 40.45758 35014 ft 458 kts 175°
2026-05-05 09:32 46.63445 40.45892 35013 ft 457 kts 175°
2026-05-05 09:33 46.57106 40.46027 35015 ft 457 kts 175°
2026-05-05 09:33 46.50785 40.46162 35017 ft 459 kts 175°
2026-05-05 09:34 46.44422 40.46298 35017 ft 458 kts 175°
2026-05-05 09:34 46.38069 40.46351 35019 ft 459 kts 177°
2026-05-05 09:35 46.31680 40.45327 35018 ft 465 kts 187°
2026-05-05 09:35 46.22224 40.41938 35021 ft 468 kts 191°
2026-05-05 09:36 46.15957 40.39452 35023 ft 469 kts 191°
2026-05-05 09:36 46.09705 40.37005 35022 ft 470 kts 191°
2026-05-05 09:37 46.03383 40.34575 35001 ft 469 kts 190°
2026-05-05 09:37 45.97214 40.32234 35016 ft 468 kts 190°
2026-05-05 09:38 45.90958 40.29879 35014 ft 468 kts 189°
2026-05-05 09:38 45.84656 40.27518 35011 ft 466 kts 190°
2026-05-05 09:39 45.78348 40.25095 35041 ft 470 kts 192°
2026-05-05 09:39 45.72239 40.21747 34989 ft 472 kts 199°
2026-05-05 09:40 45.66320 40.17710 34987 ft 475 kts 202°
2026-05-05 09:40 45.60406 40.13503 34981 ft 476 kts 202°
2026-05-05 09:41 45.54536 40.09350 34991 ft 475 kts 202°
2026-05-05 09:41 45.48600 40.05211 34976 ft 475 kts 201°
2026-05-05 09:42 45.42545 40.01705 34961 ft 468 kts 191°
2026-05-05 09:42 45.36173 39.99967 34970 ft 464 kts 183°
2026-05-05 09:43 45.29810 39.98950 34973 ft 462 kts 181°
2026-05-05 09:43 45.23432 39.98031 34964 ft 464 kts 181°
2026-05-05 09:44 45.17037 39.97054 34980 ft 462 kts 182°
2026-05-05 09:44 45.10643 39.96034 34967 ft 464 kts 182°
2026-05-05 09:45 45.04275 39.94992 34953 ft 462 kts 182°
2026-05-05 09:45 45.00029 39.94292 34963 ft 462 kts 182°
2026-05-05 09:46 44.84555 39.91746 34953 ft 461 kts 182°
2026-05-05 09:47 44.78199 39.90707 34956 ft 462 kts 183°
2026-05-05 09:47 44.71810 39.89663 34948 ft 461 kts 183°
2026-05-05 09:48 44.65469 39.88627 34962 ft 459 kts 182°
2026-05-05 09:48 44.59164 39.87602 34945 ft 458 kts 183°
2026-05-05 09:49 44.52809 39.86572 34949 ft 459 kts 183°
2026-05-05 09:49 44.46478 39.85548 34963 ft 458 kts 183°
2026-05-05 09:50 44.40178 39.84672 34954 ft 456 kts 179°
2026-05-05 09:50 44.33920 39.85273 34955 ft 452 kts 166°
2026-05-05 09:51 44.27835 39.87348 34950 ft 449 kts 161°
2026-05-05 09:51 44.21879 39.89781 34959 ft 448 kts 161°
2026-05-05 09:52 44.15918 39.92233 34711 ft 438 kts 161°
2026-05-05 09:52 44.13015 39.93409 33986 ft 442 kts 161°
2026-05-05 09:52 44.10054 39.94600 33351 ft 445 kts 161°
2026-05-05 09:53 44.07073 39.95790 32764 ft 447 kts 160°
2026-05-05 09:53 44.04095 39.96973 32186 ft 448 kts 160°
2026-05-05 09:53 44.01131 39.98144 31403 ft 445 kts 160°
2026-05-05 09:53 43.98155 39.99318 30304 ft 448 kts 160°
2026-05-05 09:54 43.95139 40.00508 28814 ft 455 kts 161°
2026-05-05 09:54 43.92136 40.01693 27416 ft 458 kts 161°
2026-05-05 09:54 43.89057 40.02908 25870 ft 463 kts 162°
2026-05-05 09:54 43.85970 40.04124 24735 ft 457 kts 162°
2026-05-05 09:55 43.82982 40.05296 23702 ft 449 kts 162°
2026-05-05 09:55 43.80002 40.06463 22644 ft 441 kts 162°
2026-05-05 09:55 43.77082 40.07599 21682 ft 433 kts 163°
2026-05-05 09:55 43.74205 40.08554 21019 ft 428 kts 168°
2026-05-05 09:56 43.71258 40.09045 20380 ft 422 kts 177°
2026-05-05 09:56 43.68364 40.08844 19970 ft 418 kts 186°
2026-05-05 09:56 43.65481 40.08066 19889 ft 422 kts 193°
2026-05-05 09:56 43.62667 40.06920 19896 ft 426 kts 198°
2026-05-05 09:57 43.59882 40.05449 19910 ft 426 kts 201°
2026-05-05 09:57 43.57189 40.03827 19881 ft 428 kts 203°
2026-05-05 09:57 43.54493 40.02118 19633 ft 426 kts 204°
2026-05-05 09:57 43.51797 40.00383 19359 ft 422 kts 204°
2026-05-05 09:58 43.49138 39.98671 19107 ft 421 kts 204°
2026-05-05 09:58 43.46527 39.96990 18559 ft 417 kts 204°
2026-05-05 09:58 43.43864 39.95409 17948 ft 411 kts 200°
2026-05-05 09:58 43.41216 39.94078 17333 ft 405 kts 198°
2026-05-05 09:59 43.38561 39.92876 16732 ft 400 kts 197°
2026-05-05 09:59 43.35904 39.91722 16102 ft 402 kts 196°
2026-05-05 09:59 43.33247 39.90572 15484 ft 402 kts 197°
2026-05-05 09:59 43.30606 39.89413 14860 ft 397 kts 197°
2026-05-05 10:00 43.27985 39.88247 14182 ft 393 kts 197°
2026-05-05 10:00 43.25433 39.87101 13585 ft 388 kts 197°
2026-05-05 10:00 43.22880 39.85949 12955 ft 384 kts 197°
2026-05-05 10:00 43.20369 39.84812 12363 ft 380 kts 197°
2026-05-05 10:01 43.17878 39.83681 11747 ft 379 kts 197°
2026-05-05 10:01 43.15367 39.82541 11274 ft 378 kts 197°
2026-05-05 10:01 43.12929 39.81435 11028 ft 365 kts 197°
2026-05-05 10:01 43.10560 39.80341 10857 ft 349 kts 199°
2026-05-05 10:02 43.08412 39.78981 10712 ft 335 kts 210°
2026-05-05 10:02 43.06701 39.76930 10604 ft 323 kts 233°
2026-05-05 10:02 43.05785 39.74202 10451 ft 314 kts 256°
2026-05-05 10:02 43.05616 39.71313 10321 ft 303 kts 272°
2026-05-05 10:03 43.05894 39.68506 10176 ft 294 kts 282°
2026-05-05 10:03 43.06422 39.65865 9927 ft 288 kts 287°
2026-05-05 10:03 43.07052 39.63273 9524 ft 289 kts 289°
2026-05-05 10:03 43.07703 39.60654 9140 ft 288 kts 289°
2026-05-05 10:04 43.08325 39.58073 8769 ft 287 kts 288°
2026-05-05 10:04 43.08934 39.55478 8400 ft 286 kts 288°
2026-05-05 10:04 43.09530 39.52898 8034 ft 284 kts 288°
2026-05-05 10:04 43.10159 39.50378 7683 ft 278 kts 294°
2026-05-05 10:05 43.11140 39.48151 7354 ft 270 kts 316°
2026-05-05 10:05 43.12698 39.46814 7018 ft 266 kts 343°
2026-05-05 10:05 43.14499 39.46479 6696 ft 262 kts
2026-05-05 10:05 43.16310 39.46660 6369 ft 260 kts 10°
2026-05-05 10:06 43.17993 39.47492 6046 ft 257 kts 34°
2026-05-05 10:06 43.19198 39.49226 5991 ft 255 kts 57°
2026-05-05 10:06 43.19982 39.51442 5979 ft 260 kts 69°
2026-05-05 10:06 43.20556 39.53807 5827 ft 263 kts 72°
2026-05-05 10:07 43.21078 39.56180 5460 ft 263 kts 72°
2026-05-05 10:07 43.21598 39.58543 5318 ft 254 kts 72°
2026-05-05 10:07 43.22107 39.60804 5261 ft 243 kts 71°
2026-05-05 10:07 43.22605 39.62964 5182 ft 233 kts 71°
2026-05-05 10:08 43.23093 39.65051 5039 ft 227 kts 71°
2026-05-05 10:08 43.23571 39.67119 4743 ft 227 kts 71°
2026-05-05 10:08 43.24039 39.69147 4470 ft 221 kts 72°
2026-05-05 10:08 43.24491 39.71113 4237 ft 212 kts 71°
2026-05-05 10:09 43.24929 39.73011 3980 ft 205 kts 71°
2026-05-05 10:09 43.25348 39.74822 3750 ft 198 kts 71°
2026-05-05 10:09 43.25757 39.76589 3537 ft 191 kts 71°
2026-05-05 10:09 43.26163 39.78314 3310 ft 185 kts 71°
2026-05-05 10:10 43.26539 39.79944 3179 ft 176 kts 71°
2026-05-05 10:10 43.26926 39.81533 3051 ft 175 kts 64°
2026-05-05 10:10 43.27713 39.82742 2925 ft 173 kts 31°
2026-05-05 10:10 43.28778 39.83521 2792 ft 174 kts 27°
2026-05-05 10:11 43.29854 39.84316 2631 ft 174 kts 28°
2026-05-05 10:11 43.30891 39.85101 2471 ft 166 kts 28°
2026-05-05 10:11 43.31879 39.85835 2301 ft 161 kts 28°
2026-05-05 10:11 43.32848 39.86556 2167 ft 154 kts 28°
2026-05-05 10:12 43.33782 39.87254 2019 ft 153 kts 28°
2026-05-05 10:12 43.34707 39.87944 1970 ft 152 kts 28°
2026-05-05 10:12 43.35661 39.88653 1813 ft 155 kts 28°
2026-05-05 10:12 43.36594 39.89350 1589 ft 152 kts 28°
2026-05-05 10:13 43.37523 39.90044 1388 ft 154 kts 28°
2026-05-05 10:13 43.38475 39.90758 1186 ft 154 kts 28°
2026-05-05 10:13 43.39417 39.91466 995 ft 155 kts 27°
2026-05-05 10:13 43.40358 39.92160 839 ft 153 kts 27°
2026-05-05 10:14 43.41298 39.92838 677 ft 153 kts 26°
2026-05-05 10:14 43.42244 39.93562 433 ft 156 kts 29°
2026-05-05 10:14 43.43200 39.94285 162 ft 158 kts 27°
2026-05-05 10:14 43.44133 39.94976 55 ft 146 kts 27°
2026-05-05 10:15 43.44827 39.95504 52 ft 70 kts 26°
2026-05-05 10:15 43.45108 39.95716 52 ft 30 kts 31°
2026-05-05 10:15 43.45254 39.95831 52 ft 11 kts 29°
2026-05-05 10:15 43.45287 39.95788 51 ft 9 kts 248°
2026-05-05 10:16 43.45255 39.95712 52 ft 9 kts 238°
2026-05-05 10:16 43.45222 39.95639 52 ft 9 kts 236°
2026-05-05 10:16 43.45160 39.95573 51 ft 13 kts 209°